Location: Colebrook
(42.0017°N, 73.0973°W)
Time: 04:53:58
(UTC-04:00)

Vanguard 2 Rocket - All Passes

Search period start: 21 October 2021 00:00
Search period end: 31 October 2021 00:00
Orbit: 556 x 3323 km, 32.9° (Epoch: 20 October)

Date Brightness Start Highest point End Pass type
(mag) Time Alt. Az. Time Alt. Az. Time Alt. Az.
21 Oct - 05:40:58 10° SSW 05:50:38 24° SSE 05:57:15 10° ESE visible
21 Oct - 07:55:28 10° SW 08:04:34 36° S 08:10:09 10° ESE daylight
21 Oct - 10:11:17 10° WSW 10:17:23 32° SSW 10:21:33 10° SE daylight
21 Oct - 12:27:50 10° SW 12:29:13 11° SSW 12:30:31 10° S daylight
22 Oct - 04:40:37 10° SSW 04:50:12 20° SSE 04:57:12 10° ESE visible
22 Oct - 06:54:03 10° SW 07:04:38 35° S 07:11:08 10° ESE daylight
22 Oct - 09:10:08 10° WSW 09:18:00 39° S 09:22:54 10° ESE daylight
22 Oct - 11:26:14 10° WSW 11:30:09 19° SSW 11:33:16 10° SSE daylight
23 Oct - 03:41:09 10° S 03:49:32 16° SSE 03:56:13 10° ESE visible
23 Oct - 05:52:38 10° SW 06:04:26 33° SSE 06:11:53 10° ESE visible
23 Oct - 08:08:37 10° WSW 08:18:21 42° S 08:24:08 10° ESE daylight
23 Oct - 10:25:06 10° WSW 10:31:00 28° SSW 10:35:06 10° SE daylight
24 Oct - 02:43:50 10° SSE 02:48:43 12° SE 02:53:05 10° SE visible
24 Oct - 04:51:28 10° SSW 05:03:57 29° SSE 05:12:17 10° ESE visible
24 Oct - 07:06:52 10° WSW 07:18:26 43° S 07:25:13 10° ESE daylight
24 Oct - 09:23:44 10° WSW 09:31:40 38° SSW 09:36:39 10° SE daylight
24 Oct - 11:40:57 10° WSW 11:43:32 13° SSW 11:45:45 10° S daylight
25 Oct - 03:50:47 10° SSW 04:03:12 25° SSE 04:12:10 10° ESE visible
25 Oct - 06:05:01 10° SW 06:18:12 41° SSE 06:26:06 10° ESE visible
25 Oct - 08:22:02 10° WSW 08:32:05 44° S 08:37:59 10° ESE daylight
25 Oct - 10:39:07 10° WSW 10:44:28 23° SSW 10:48:22 10° SSE daylight
26 Oct - 02:50:57 10° S 03:02:17 20° SSE 03:11:12 10° ESE visible
26 Oct - 05:03:17 10° SW 05:17:39 38° SSE 05:26:43 10° E visible
26 Oct - 07:20:01 10° WSW 07:32:10 48° S 07:39:09 10° ESE daylight
26 Oct - 09:37:28 10° W 09:45:15 33° SSW 09:50:13 10° SE daylight
27 Oct - 01:52:43 10° S 02:01:15 15° SE 02:08:42 10° ESE visible
27 Oct - 04:01:54 10° SSW 04:16:49 34° SSE 04:26:57 10° E visible
27 Oct - 06:17:51 10° WSW 06:31:55 49° S 06:40:07 10° ESE visible
27 Oct - 08:35:35 10° W 08:45:44 43° SSW 08:51:43 10° SE daylight
27 Oct - 10:53:33 10° WSW 10:57:45 16° SW 11:01:03 10° S daylight
28 Oct - 03:01:07 10° SSW 03:15:46 29° SSE 03:26:38 10° E visible
28 Oct - 05:15:43 10° SW 05:31:19 47° SSE 05:40:49 10° E visible
28 Oct - 07:33:24 10° WSW 07:45:52 50° S 07:52:58 10° ESE daylight
28 Oct - 09:51:23 10° W 09:58:39 27° SSW 10:03:28 10° SSE daylight
29 Oct - 02:01:14 10° S 02:14:36 23° SE 02:25:29 10° ESE visible
29 Oct - 04:13:51 10° SW 04:30:24 43° SSE 04:41:13 10° E visible
29 Oct - 06:31:01 10° WSW 06:45:36 53° S 06:54:00 10° ESE visible
29 Oct - 08:49:16 10° W 08:59:14 38° SSW 09:05:15 10° SE daylight
29 Oct - 11:09:40 10° SW 11:10:50 10° SW 11:11:55 10° SW daylight
30 Oct - 01:02:49 10° S 01:13:27 17° SE 01:22:56 10° ESE visible
30 Oct - 03:12:27 10° SW 03:29:13 38° SSE 03:41:11 10° E visible
30 Oct - 05:28:35 10° WSW 05:44:58 53° S 05:54:46 10° E visible
30 Oct - 07:46:56 10° W 07:59:27 48° SSW 08:06:39 10° ESE daylight
30 Oct - 10:05:38 10° W 10:11:50 20° SW 10:16:16 10° S daylight
